User: anonymous   Login
Location: Skalnate Pleso
(49.1889°N, 20.2450°E)
Time: 16:07:01
(UTC+01:00)
Language:

CZ-2C R/B - Orbit

View from above orbital plane
View from above orbital plane
View from above satellite
View from above satellite

Ground track
Ground track

The orbit data is extracted from the following two-line orbital elements,

1 36089U 09061B   20021.55520264  .00000031  00000-0  19067-4 0  9997
2 36089  98.1354   0.0903 0082192   8.0993 101.1598 14.49813923539119
Epoch (UTC): 21 January 2020 13:19:29
Eccentricity: 0.0082192
inclination: 98.1354°
perigee height: 668 km
apogee height: 784 km
right ascension of ascending node: 0.0903°
argument of perigee: 8.0993°
revolutions per day: 14.49813923
mean anomaly at epoch: 101.1598°
orbit number at epoch: 53911

The dashed part of the orbit path shows where the satellite is in the earth's shadow,  

DLR